| time (UTC) | temp F | wind direction | speed MPH | gust MPH | rain 1hr in | rain 24hr in | rain mn in | humidity % | barometer mb |
| 20260505001823 | 71 | 275 | 22.0 | 33.0 | 0.00 | 0.00 | 0.00 | 30 | 1009.9 |
| 20260505001314 | 71 | 258 | 19.0 | 33.0 | 0.00 | 0.00 | 0.00 | 31 | 1009.9 |
| 20260505000827 | 70 | 292 | 24.0 | 34.0 | 0.00 | 0.00 | 0.00 | 32 | 1010.0 |
| 20260505000339 | 70 | 260 | 25.0 | 34.0 | 0.00 | 0.00 | 0.00 | 32 | 1009.9 |
| 20260504235846 | 71 | 270 | 20.0 | 34.0 | 0.00 | 0.00 | 0.00 | 31 | 1010.0 |
| 20260504235315 | 71 | 257 | 23.0 | 34.0 | 0.00 | 0.00 | 0.00 | 31 | 1009.8 |
| 20260504234827 | 70 | 272 | 21.0 | 32.0 | 0.00 | 0.00 | 0.00 | 32 | 1009.7 |
| 20260504234322 | 70 | 267 | 17.0 | 32.0 | 0.00 | 0.00 | 0.00 | 33 | 1009.8 |
| 20260504233833 | 70 | 273 | 19.0 | 37.0 | 0.00 | 0.00 | 0.00 | 33 | 1009.7 |
| 20260504233323 | 70 | 267 | 25.0 | 37.0 | 0.00 | 0.00 | 0.00 | 33 | 1009.8 |
| 20260504232835 | 70 | 274 | 26.0 | 37.0 | 0.00 | 0.00 | 0.00 | 32 | 1009.8 |
| 20260504232344 | 71 | 260 | 28.0 | 37.0 | 0.00 | 0.00 | 0.00 | 32 | 1009.8 |
| 20260504231815 | 72 | 246 | 23.0 | 33.0 | 0.00 | 0.00 | 0.00 | 32 | 1009.8 |
| 20260504231326 | 72 | 285 | 25.0 | 37.0 | 0.00 | 0.00 | 0.00 | 31 | 1009.7 |
| 20260504230818 | 72 | 253 | 25.0 | 37.0 | 0.00 | 0.00 | 0.00 | 30 | 1009.8 |
| 20260504230329 | 73 | 272 | 24.0 | 33.0 | 0.00 | 0.00 | 0.00 | 30 | 1009.7 |
| 20260504225820 | 72 | 278 | 17.0 | 35.0 | 0.00 | 0.00 | 0.00 | 31 | 1009.8 |
| 20260504225331 | 72 | 244 | 24.0 | 35.0 | 0.00 | 0.00 | 0.00 | 30 | 1009.7 |
| 20260504224828 | 72 | 291 | 24.0 | 39.0 | 0.00 | 0.00 | 0.00 | 31 | 1009.9 |
| 20260504224340 | 73 | 250 | 28.0 | 39.0 | 0.00 | 0.00 | 0.00 | 30 | 1009.8 |
| 20260504223831 | 73 | 267 | 22.0 | 38.0 | 0.00 | 0.00 | 0.00 | 31 | 1009.9 |
| 20260504223322 | 73 | 254 | 26.0 | 38.0 | 0.00 | 0.00 | 0.00 | 31 | 1010.0 |
| 20260504222815 | 72 | 276 | 22.0 | 35.0 | 0.00 | 0.00 | 0.00 | 31 | 1010.0 |
| 20260504222327 | 72 | 260 | 22.0 | 33.0 | 0.00 | 0.00 | 0.00 | 30 | 1010.1 |
| 20260504221821 | 72 | 260 | 24.0 | 36.0 | 0.00 | 0.00 | 0.00 | 31 | 1010.1 |
| 20260504221313 | 72 | 276 | 28.0 | 36.0 | 0.00 | 0.00 | 0.00 | 31 | 1010.2 |
| 20260504220827 | 72 | 259 | 26.0 | 35.0 | 0.00 | 0.00 | 0.00 | 32 | 1010.3 |
| 20260504220343 | 72 | 284 | 26.0 | 34.0 | 0.00 | 0.00 | 0.00 | 31 | 1010.3 |
| 20260504215830 | 71 | 277 | 26.0 | 37.0 | 0.00 | 0.00 | 0.00 | 32 | 1010.4 |
| 20260504215321 | 71 | 257 | 28.0 | 38.0 | 0.00 | 0.00 | 0.00 | 32 | 1010.5 |
| 20260504214813 | 71 | 255 | 25.0 | 35.0 | 0.00 | 0.00 | 0.00 | 31 | 1010.7 |
| 20260504214325 | 71 | 279 | 28.0 | 35.0 | 0.00 | 0.00 | 0.00 | 32 | 1010.8 |
| 20260504213817 | 71 | 231 | 25.0 | 33.0 | 0.00 | 0.00 | 0.00 | 31 | 1010.9 |
| 20260504213327 | 71 | 259 | 28.0 | 33.0 | 0.00 | 0.00 | 0.00 | 30 | 1010.8 |
| 20260504212820 | 72 | 244 | 24.0 | 33.0 | 0.00 | 0.00 | 0.00 | 30 | 1010.9 |
| 20260504212332 | 71 | 288 | 25.0 | 35.0 | 0.00 | 0.00 | 0.00 | 32 | 1011.0 |
| 20260504211846 | 71 | 254 | 25.0 | 36.0 | 0.00 | 0.00 | 0.00 | 31 | 1010.9 |
| 20260504211335 | 71 | 250 | 28.0 | 36.0 | 0.00 | 0.00 | 0.00 | 31 | 1011.0 |
| 20260504210830 | 72 | 250 | 23.0 | 34.0 | 0.00 | 0.00 | 0.00 | 30 | 1011.1 |
| 20260504210322 | 71 | 277 | 26.0 | 34.0 | 0.00 | 0.00 | 0.00 | 30 | 1011.0 |
| 20260504205830 | 72 | 248 | 26.0 | 31.0 | 0.00 | 0.00 | 0.00 | 30 | 1011.2 |
| 20260504205341 | 71 | 251 | 23.0 | 34.0 | 0.00 | 0.00 | 0.00 | 31 | 1011.1 |
| 20260504204814 | 71 | 244 | 27.0 | 34.0 | 0.00 | 0.00 | 0.00 | 31 | 1011.1 |
| 20260504204325 | 71 | 261 | 20.0 | 30.0 | 0.00 | 0.00 | 0.00 | 31 | 1011.3 |
| 20260504203818 | 71 | 275 | 23.0 | 34.0 | 0.00 | 0.00 | 0.00 | 31 | 1011.3 |
| 20260504203348 | 71 | 258 | 21.0 | 29.0 | 0.00 | 0.00 | 0.00 | 31 | 1011.4 |
| 20260504202820 | 71 | 259 | 18.0 | 32.0 | 0.00 | 0.00 | 0.00 | 31 | 1011.2 |
| 20260504202316 | 71 | 265 | 20.0 | 32.0 | 0.00 | 0.00 | 0.00 | 31 | 1011.3 |
| 20260504201847 | 71 | 269 | 24.0 | 29.0 | 0.00 | 0.00 | 0.00 | 32 | 1011.4 |
| 20260504201316 | 71 | 242 | 23.0 | 30.0 | 0.00 | 0.00 | 0.00 | 31 | 1011.5 |
| 20260504200829 | 70 | 248 | 21.0 | 30.0 | 0.00 | 0.00 | 0.00 | 32 | 1011.5 |
| 20260504200340 | 71 | 275 | 22.0 | 32.0 | 0.00 | 0.00 | 0.00 | 31 | 1011.6 |
| 20260504195829 | 70 | 260 | 24.0 | 32.0 | 0.00 | 0.00 | 0.00 | 32 | 1011.6 |
| 20260504195319 | 70 | 273 | 22.0 | 31.0 | 0.00 | 0.00 | 0.00 | 32 | 1011.4 |
| 20260504194851 | 69 | 267 | 23.0 | 31.0 | 0.00 | 0.00 | 0.00 | 33 | 1011.6 |
| 20260504194321 | 69 | 267 | 22.0 | 31.0 | 0.00 | 0.00 | 0.00 | 33 | 1011.8 |
| 20260504193813 | 69 | 252 | 24.0 | 30.0 | 0.00 | 0.00 | 0.00 | 33 | 1011.9 |
| 20260504193324 | 69 | 271 | 19.0 | 29.0 | 0.00 | 0.00 | 0.00 | 33 | 1011.8 |
| 20260504192820 | 69 | 280 | 23.0 | 32.0 | 0.00 | 0.00 | 0.00 | 32 | 1011.9 |
| 20260504192351 | 70 | 264 | 24.0 | 32.0 | 0.00 | 0.00 | 0.00 | 32 | 1012.0 |
| 20260504191821 | 70 | 277 | 19.0 | 26.0 | 0.00 | 0.00 | 0.00 | 32 | 1012.0 |
| 20260504191313 | 69 | 263 | 17.0 | 30.0 | 0.00 | 0.00 | 0.00 | 32 | 1012.0 |
| 20260504190827 | 69 | 250 | 22.0 | 30.0 | 0.00 | 0.00 | 0.00 | 33 | 1012.0 |
| 20260504190318 | 69 | 293 | 16.0 | 32.0 | 0.00 | 0.00 | 0.00 | 34 | 1012.0 |
| 20260504185828 | 69 | 277 | 23.0 | 32.0 | 0.00 | 0.00 | 0.00 | 34 | 1012.1 |
| 20260504185340 | 69 | 253 | 21.0 | 29.0 | 0.00 | 0.00 | 0.00 | 35 | 1012.1 |
| 20260504184831 | 68 | 239 | 21.0 | 34.0 | 0.00 | 0.00 | 0.00 | 35 | 1012.1 |
| 20260504184321 | 68 | 302 | 25.0 | 34.0 | 0.00 | 0.00 | 0.00 | 36 | 1012.1 |
| 20260504183818 | 68 | 292 | 22.0 | 34.0 | 0.00 | 0.00 | 0.00 | 36 | 1012.2 |
| 20260504183330 | 68 | 265 | 24.0 | 35.0 | 0.00 | 0.00 | 0.00 | 36 | 1012.4 |
| 20260504182842 | 68 | 254 | 24.0 | 31.0 | 0.00 | 0.00 | 0.00 | 35 | 1012.3 |
| 20260504182351 | 67 | 265 | 23.0 | 34.0 | 0.00 | 0.00 | 0.00 | 36 | 1012.3 |
| 20260504181823 | 67 | 262 | 27.0 | 34.0 | 0.00 | 0.00 | 0.00 | 37 | 1012.2 |
| 20260504181313 | 67 | 269 | 23.0 | 32.0 | 0.00 | 0.00 | 0.00 | 37 | 1012.2 |
| 20260504180827 | 67 | 273 | 20.0 | 32.0 | 0.00 | 0.00 | 0.00 | 39 | 1012.3 |
| 20260504180337 | 66 | 260 | 21.0 | 34.0 | 0.00 | 0.00 | 0.00 | 40 | 1012.2 |
| 20260504175825 | 65 | 266 | 23.0 | 31.0 | 0.00 | 0.00 | 0.00 | 40 | 1012.1 |
| 20260504175316 | 65 | 267 | 21.0 | 31.0 | 0.00 | 0.00 | 0.00 | 40 | 1012.1 |
| 20260504174814 | 65 | 248 | 24.0 | 31.0 | 0.00 | 0.00 | 0.00 | 40 | 1012.0 |
| 20260504174325 | 65 | 267 | 24.0 | 32.0 | 0.00 | 0.00 | 0.00 | 41 | 1012.0 |
| 20260504173818 | 65 | 269 | 23.0 | 32.0 | 0.00 | 0.00 | 0.00 | 41 | 1011.9 |
| 20260504173328 | 65 | 271 | 22.0 | 30.0 | 0.00 | 0.00 | 0.00 | 41 | 1011.9 |
| 20260504172820 | 65 | 251 | 22.0 | 32.0 | 0.00 | 0.00 | 0.00 | 40 | 1011.9 |
| 20260504172312 | 64 | 265 | 24.0 | 32.0 | 0.00 | 0.00 | 0.00 | 41 | 1011.9 |
| 20260504171826 | 65 | 255 | 23.0 | 35.0 | 0.00 | 0.00 | 0.00 | 41 | 1011.9 |
| 20260504171337 | 64 | 257 | 23.0 | 35.0 | 0.00 | 0.00 | 0.00 | 42 | 1012.0 |
| 20260504170829 | 64 | 261 | 25.0 | 33.0 | 0.00 | 0.00 | 0.00 | 42 | 1012.0 |
| 20260504170325 | 64 | 274 | 26.0 | 33.0 | 0.00 | 0.00 | 0.00 | 42 | 1011.9 |
| 20260504160332 | 61 | 274 | 23.0 | 31.0 | 0.00 | 0.00 | 0.00 | 46 | 1011.6 |
| 20260504150827 | 60 | 291 | 16.0 | 25.0 | 0.00 | 0.00 | 0.00 | 51 | 1011.6 |
| 20260504150317 | 60 | 267 | 12.0 | 28.0 | 0.00 | 0.00 | 0.00 | 51 | 1011.6 |
| 20260504141320 | 60 | 286 | 17.0 | 23.0 | 0.00 | 0.00 | 0.00 | 52 | 1011.6 |
| 20260504140817 | 60 | 255 | 16.0 | 23.0 | 0.00 | 0.00 | 0.00 | 51 | 1011.6 |
| 20260504140328 | 59 | 269 | 15.0 | 19.0 | 0.00 | 0.00 | 0.00 | 52 | 1011.6 |
| 20260504130315 | 59 | 295 | 22.0 | 34.0 | 0.00 | 0.00 | 0.00 | 54 | 1011.0 |
| 20260504110327 | 59 | 280 | 29.0 | 38.0 | 0.00 | 0.00 | 0.00 | 56 | 1009.9 |
| 20260504100324 | 60 | 285 | 25.0 | 35.0 | 0.00 | 0.00 | 0.00 | 54 | 1009.6 |
| 20260504081841 | 60 | 286 | 23.0 | 32.0 | 0.00 | 0.00 | 0.00 | 51 | 1011.5 |
| 20260504081331 | 60 | 291 | 22.0 | 35.0 | 0.00 | 0.00 | 0.00 | 52 | 1011.7 |
| 20260504080822 | 60 | 269 | 23.0 | 35.0 | 0.00 | 0.00 | 0.00 | 52 | 1011.6 |
| 20260504080313 | 60 | 276 | 25.0 | 31.0 | 0.00 | 0.00 | 0.00 | 52 | 1011.1 |
| 20260504070322 | 61 | 284 | 31.0 | 41.0 | 0.00 | 0.00 | 0.00 | 52 | 1009.9 |
| 20260504050330 | 62 | 286 | 28.0 | 46.0 | 0.00 | 0.00 | 0.00 | 55 | 1009.3 |
| 20260504045820 | 62 | 300 | 29.0 | 46.0 | 0.00 | 0.00 | 0.00 | 55 | 1009.0 |
| 20260504045351 | 62 | 293 | 25.0 | 41.0 | 0.00 | 0.00 | 0.00 | 54 | 1008.9 |
| 20260504044823 | 62 | 304 | 29.0 | 40.0 | 0.00 | 0.00 | 0.00 | 54 | 1009.0 |
| 20260504044315 | 62 | 324 | 29.0 | 38.0 | 0.00 | 0.00 | 0.00 | 54 | 1008.8 |
| 20260504043828 | 62 | 271 | 30.0 | 42.0 | 0.00 | 0.00 | 0.00 | 54 | 1008.8 |
| 20260504043324 | 63 | 269 | 30.0 | 42.0 | 0.00 | 0.00 | 0.00 | 54 | 1008.6 |
| 20260504042816 | 63 | 295 | 30.0 | 43.0 | 0.00 | 0.00 | 0.00 | 54 | 1008.6 |
| 20260504042348 | 63 | 300 | 33.0 | 45.0 | 0.00 | 0.00 | 0.00 | 54 | 1008.6 |
| 20260504041820 | 63 | 289 | 34.0 | 47.0 | 0.00 | 0.00 | 0.00 | 54 | 1008.5 |
| 20260504041331 | 63 | 302 | 34.0 | 47.0 | 0.00 | 0.00 | 0.00 | 54 | 1008.5 |
| 20260504040823 | 63 | 291 | 31.0 | 44.0 | 0.00 | 0.00 | 0.00 | 54 | 1008.6 |
| 20260504040315 | 63 | 315 | 31.0 | 40.0 | 0.00 | 0.00 | 0.00 | 54 | 1008.6 |
| 20260504035825 | 64 | 300 | 31.0 | 41.0 | 0.00 | 0.00 | 0.00 | 54 | 1008.4 |
| 20260504035337 | 64 | 297 | 33.0 | 49.0 | 0.00 | 0.00 | 0.00 | 53 | 1008.1 |
| 20260504034851 | 64 | 280 | 31.0 | 49.0 | 0.00 | 0.00 | 0.00 | 54 | 1008.0 |
| 20260504034320 | 64 | 298 | 31.0 | 44.0 | 0.00 | 0.00 | 0.00 | 53 | 1008.1 |
| 20260504033818 | 64 | 312 | 31.0 | 40.0 | 0.00 | 0.00 | 0.00 | 53 | 1008.2 |
| 20260504033328 | 64 | 280 | 30.0 | 40.0 | 0.00 | 0.00 | 0.00 | 53 | 1008.1 |
| 20260504032820 | 65 | 293 | 30.0 | 44.0 | 0.00 | 0.00 | 0.00 | 53 | 1008.1 |
| 20260504032330 | 65 | 261 | 32.0 | 44.0 | 0.00 | 0.00 | 0.00 | 52 | 1008.1 |
| 20260504031822 | 65 | 271 | 29.0 | 40.0 | 0.00 | 0.00 | 0.00 | 51 | 1007.9 |
| 20260504031313 | 66 | 283 | 32.0 | 42.0 | 0.00 | 0.00 | 0.00 | 50 | 1007.6 |
| 20260504030827 | 66 | 282 | 30.0 | 42.0 | 0.00 | 0.00 | 0.00 | 50 | 1007.5 |
| 20260504030318 | 67 | 293 | 31.0 | 38.0 | 0.00 | 0.00 | 0.00 | 48 | 1007.4 |
| 20260504025827 | 67 | 277 | 29.0 | 39.0 | 0.00 | 0.00 | 0.00 | 49 | 1007.5 |
| 20260504025342 | 68 | 279 | 30.0 | 39.0 | 0.00 | 0.00 | 0.00 | 48 | 1007.3 |
| 20260504024813 | 68 | 279 | 29.0 | 39.0 | 0.00 | 0.00 | 0.00 | 47 | 1007.0 |
| 20260504024324 | 69 | 319 | 26.0 | 35.0 | 0.00 | 0.00 | 0.00 | 45 | 1007.0 |
| 20260504023817 | 69 | 282 | 23.0 | 34.0 | 0.00 | 0.00 | 0.00 | 45 | 1007.0 |
| 20260504023349 | 69 | 291 | 23.0 | 31.0 | 0.00 | 0.00 | 0.00 | 44 | 1007.1 |
| 20260504022821 | 70 | 279 | 23.0 | 31.0 | 0.00 | 0.00 | 0.00 | 43 | 1007.0 |
| 20260504022353 | 70 | 275 | 21.0 | 30.0 | 0.00 | 0.00 | 0.00 | 43 | 1006.9 |
| 20260504021845 | 70 | 272 | 22.0 | 31.0 | 0.00 | 0.00 | 0.00 | 42 | 1006.8 |
| 20260504021315 | 71 | 298 | 22.0 | 36.0 | 0.00 | 0.00 | 0.00 | 42 | 1006.7 |
| 20260504020829 | 71 | 256 | 29.0 | 36.0 | 0.00 | 0.00 | 0.00 | 41 | 1006.6 |
| 20260504020341 | 72 | 288 | 26.0 | 34.0 | 0.00 | 0.00 | 0.00 | 40 | 1006.5 |
| 20260504015815 | 72 | 305 | 24.0 | 35.0 | 0.00 | 0.00 | 0.00 | 40 | 1006.6 |
| 20260504015326 | 73 | 296 | 20.0 | 34.0 | 0.00 | 0.00 | 0.00 | 39 | 1006.6 |
| 20260504014819 | 73 | 304 | 23.0 | 31.0 | 0.00 | 0.00 | 0.00 | 38 | 1006.4 |
| 20260504014332 | 73 | 286 | 19.0 | 32.0 | 0.00 | 0.00 | 0.00 | 37 | 1006.4 |
| 20260504013823 | 74 | 269 | 22.0 | 35.0 | 0.00 | 0.00 | 0.00 | 37 | 1006.3 |
| 20260504013315 | 74 | 287 | 22.0 | 35.0 | 0.00 | 0.00 | 0.00 | 38 | 1006.2 |
| 20260504012827 | 74 | 259 | 21.0 | 32.0 | 0.00 | 0.00 | 0.00 | 37 | 1006.3 |
| 20260504012319 | 74 | 278 | 25.0 | 36.0 | 0.00 | 0.00 | 0.00 | 37 | 1006.3 |
| 20260504011814 | 75 | 276 | 29.0 | 36.0 | 0.00 | 0.00 | 0.00 | 37 | 1006.5 |
| 20260504011329 | 75 | 277 | 24.0 | 34.0 | 0.00 | 0.00 | 0.00 | 36 | 1006.4 |
| 20260504010822 | 75 | 273 | 28.0 | 34.0 | 0.00 | 0.00 | 0.00 | 36 | 1006.4 |
| 20260504010314 | 76 | 267 | 25.0 | 32.0 | 0.00 | 0.00 | 0.00 | 35 | 1006.3 |
| 20260504005823 | 76 | 279 | 20.0 | 29.0 | 0.00 | 0.00 | 0.00 | 36 | 1006.4 |
| 20260504005314 | 76 | 270 | 22.0 | 33.0 | 0.00 | 0.00 | 0.00 | 35 | 1006.5 |
| 20260504004826 | 77 | 272 | 21.0 | 28.0 | 0.00 | 0.00 | 0.00 | 34 | 1006.4 |
| 20260504004338 | 77 | 258 | 21.0 | 30.0 | 0.00 | 0.00 | 0.00 | 33 | 1006.3 |
| 20260504003831 | 77 | 267 | 20.0 | 30.0 | 0.00 | 0.00 | 0.00 | 34 | 1006.3 |
| 20260504003322 | 77 | 274 | 22.0 | 33.0 | 0.00 | 0.00 | 0.00 | 34 | 1006.2 |
| 20260504002815 | 77 | 273 | 24.0 | 33.0 | 0.00 | 0.00 | 0.00 | 34 | 1006.2 |
| 20260504002347 | 77 | 254 | 19.0 | 27.0 | 0.00 | 0.00 | 0.00 | 34 | 1006.3 |